SCP
-0 -0 -0 -0 0 0 0 0 0 0 0 0 -0 -0 -0 -0 -0 -0 -0 -0 -0 -0 -0 -0 -0 -0 -0 -0 -0 0 0 -0 -0 -0 -0 0 -0 -0 -0 0 -0 -0 -0
-0 -0 -0 -0 0 0 0 0 0 0 0 -0 -0 -0 -0 -0 -0 -0 -0 -0 -0 -0 -0 -0 -0 -0 -0 -0 -0 -0 0 -0 -0 -0 -0 0 -0 -0 -0 0 0 0 -0
-0 -0 -0 -0 0 0 0 0 0 0 0 -0 -0 -0 -0 -0 -0 -0 -0 -0 -0 -0 -0 -0 -0 -0 -0 -0 -0 -0 -0 -0 -0 -0 -0 -0 -0 -0 -0 0 0 0 0
-0 -0 -0 0 -0 -0 -0 0 0 0 0 -0 -0 -0 -0 -0 -0 -0 -0 -0 -0 -0 -0 -0 -0 -0 -0 -0 -0 -0 -0 -0 -0 -0 -0 -0 -0 -0 0 0 0 0 0
-0 -0 -0 0 0 0 -0 -0 0 0 0 0 0 -0 -0 -0 -0 -0 -0 -0 -0 -0 -0 -0 -0 -0 -0 0 0 -0 -0 -0 -0 0 -0 0 0 0 0 0 0 0 0
-0 -0 -0 0 0 0 0 0 0 0 0 0 0 0 0 0 -0 -0 -0 -0 0 -0 -0 -0 0 0 0 0 -0 -0 -0 -0 -0 -0 -0 0 0 0 0 0 0 0 0
0 0 0 -0 0 0 0 0 0 0 0 0 0 0 0 0 0 -0 -0 0 0 0 0 0 0 0 0 0 -0 -0 -0 -0 0 -0 -0 0 0 0 0 0 0 0 0
-0 0 0 0 0 -0 0 0 0 0 0 0 0 0 0 0 0 0 0 0 0 0 0 0 0 0 0 0 -0 -0 0 -0 -0 -0 -0 0 0 0 0 0 0 0 0
-0 0 0 0 0 0 0 0 0 0 0 0 0 0 0 0 -0 -0 0 0 0 0 0 0 0 0 0 -0 -0 -0 0 -0 0 -0 0 0 0 0 0 0 0 0 0
0 0 0 0 0 0 0 0 0 0 0 0 0 0 0 0 0 0 0 0 0 0 0 0 0 0 -0 -0 -0 -0 -0 -0 0 0 0 0 0 0 0 0 0 0 0
0 0 0 0 0 0 0 0 0 0 0 0 0 0 0 0 0 0 0 0 0 0 0 0 0 -0 -0 -0 0 -0 -0 0 0 0 0 0 0 0 0 0 0 0 0
0 0 0 0 0 0 0 0 0 0 0 0 0 0 0 -0 0 0 0 0 0 0 0 0 0 -0 -0 -0 0 0 0 0 0 0 0 0 0 0 0 0 0 0 0
0 0 0 0 0 0 0 0 0 0 0 0 0 0 -0 0 0 0 0 0 0 0 0 0 0 0 0 0 0 0 0 0 0 0 0 0 0 0 0 0 0 0 0
0 0 0 0 0 0 0 0 0 0 0 0 0 0 0 0 0 0 0 0 0 0 0 0 0 0 0 0 0 0 0 0 0 0 0 0 0 0 0 0 0 0 0
0 0 0 0 0 0 0 0 0 0 0 0 0 0 0 0 0 0 0 0 0 0 0 0 0 0 0 0 0 0 0 0 0 0 0 0 0 0 0 0 0 0 0
0 0 0 0 0 0 0 0 0 0 0 0 0 0 0 0 0 0 0 0 0 0 0 0 0 0 0 0 0 0 0 0 0 0 0 0 0 0 0 0 0 0 0
0 0 0 0 0 0 0 0 0 0 0 0 0 0 0 0 0 0 0 0 0 0 0 0 0 0 0 0 0 0 0 0 0 0 0 0 0 0 0 0 0 0 0
0 0 0 0 0 0 0 0 0 0 0 0 0 0 0 0 0 0 0 0 0 0 0 0 0 0 0 0 0 0 0 0 0 0 0 0 0 0 0 0 0 0 0
0 0 0 0 0 0 0 0 0 0 0 0 0 0 0 0 0 0 0 0 0 0 0 0 0 0 0 0 0 0 0 0 0 0 0 0 0 0 0 0 0 0 0
0 0 0 0 0 0 0 0 0 0 0 0 0 0 0 0 0 0 0 0 0 0 0 0 0 0 0 0 0 0 0 0 0 0 0 0 0 0 0 0 0 0 0
0 0 0 0 0 0 0 0 0 0 0 0 0 0 0 0 0 0 0 0 0 0 0 0 0 0 0 0 0 0 0 0 0 0 0 0 0 0 0 0 0 0 0
0 0 0 0 0 0 0 0 0 0 0 0 0 0 0 0 0 0 0 0 0 0 0 0 0 0 0 0 0 0 0 0 0 0 0 0 0 0 0 0 0 0 0
0 0 0 0 0 0 0 0 0 0 0 0 0 0 0 0 0 0 0 0 0 0 0 0 0 0 0 0 0 0 0 0 0 0 0 0 0 0 0 0 0 0 0
0 0 0 0 0 0 0 0 0 0 0 0 0 0 0 0 0 0 0 0 0 0 0 0 0 0 0 0 0 0 0 0 0 0 0 0 0 0 0 0 0 0 0
0 0 0 0 0 0 0 0 0 0 0 0 0 0 0 0 0 0 0 0 0 0 0 0 0 0 0 0 0 0 0 0 0 0 0 0 0 0 0 0 0 0 0
0 0 0 0 0 0 0 0 0 0 0 0 0 0 0 0 0 0 0 0 0 0 0 0 0 0 0 0 0 0 0 0 0 0 0 0 0 0 0 0 0 0 0
Wind_Speed_500mb
33 33 33 30 26 29 32 31 33 35 37 35 28 25 22 19 15 11 9 9 12 20 22 24 25 26 28 29 30 30 32 35 36 37 29 26 27 28 29 28 22 25 23
36 41 36 31 27 32 35 34 40 38 31 27 27 23 18 15 11 8 7 9 17 21 23 24 25 25 26 27 28 31 33 34 37 36 33 29 26 25 23 22 26 30 26
36 45 40 34 33 36 37 37 42 37 31 32 30 23 15 8 6 6 7 12 15 18 21 23 24 25 25 25 26 27 30 36 41 36 28 22 24 20 18 16 18 21 22
33 46 42 38 39 40 39 41 42 36 30 28 22 17 11 8 5 5 11 14 19 19 21 21 20 22 23 23 23 24 25 25 29 28 22 16 18 18 18 18 17 19 21
31 46 43 41 40 40 37 43 40 33 33 28 19 14 11 4 4 6 12 12 13 16 18 20 18 21 20 20 20 20 20 20 25 22 14 7 13 14 15 15 16 16 16
30 37 43 42 40 40 38 42 37 35 32 26 19 13 8 2 2 4 13 13 11 13 16 16 16 16 16 15 15 15 15 14 20 11 9 5 10 12 12 12 12 12 12
35 38 44 41 40 41 40 39 39 32 27 21 19 14 9 7 6 5 9 11 12 11 12 13 13 12 11 11 11 11 10 10 11 8 6 7 10 10 11 11 11 11 11
41 34 45 42 41 41 41 39 35 29 25 21 20 17 15 13 12 13 8 9 13 12 11 10 8 7 7 6 5 6 6 6 6 8 8 9 10 12 12 12 12 13 14
39 34 48 46 43 42 40 37 34 30 26 25 24 21 20 18 19 17 15 14 14 12 10 8 7 5 3 2 3 4 5 5 4 5 9 13 15 16 16 15 14 14 14
37 36 48 48 46 45 42 38 35 32 29 28 26 25 23 24 27 29 21 19 15 13 10 7 4 3 2 2 3 5 6 5 5 9 12 15 17 19 19 18 17 17 17
37 31 38 44 46 45 42 39 35 31 28 26 26 26 24 21 19 14 16 16 15 14 10 8 7 6 6 5 4 6 7 8 12 12 15 18 20 20 19 20 20 21 21
47 45 39 44 36 43 42 40 37 32 27 24 25 25 23 14 11 14 17 16 16 15 12 10 8 6 7 8 6 8 8 10 13 14 17 17 19 20 20 20 21 22 22
49 47 44 43 37 35 35 39 40 35 29 25 23 24 25 25 25 26 22 18 18 15 13 13 9 8 10 9 12 13 14 15 14 14 17 18 20 22 23 24 24 24 23
53 54 50 47 44 42 43 37 39 33 29 25 20 22 29 31 35 28 27 18 18 16 12 10 10 12 13 13 12 12 13 14 15 16 18 20 21 23 24 25 25 26 26
58 57 55 52 47 45 50 43 41 37 33 27 24 27 28 32 31 24 21 22 19 17 15 14 14 14 15 15 14 14 15 17 17 17 18 20 19 21 24 24 25 26 27
54 60 57 63 60 48 50 48 45 39 32 28 28 27 28 23 23 23 24 23 22 20 17 16 16 17 16 17 17 17 18 18 20 20 22 23 21 20 20 22 23 25 26
58 55 55 50 68 65 56 50 46 41 34 31 34 32 28 28 27 24 23 22 21 20 19 20 19 19 18 17 17 18 19 22 22 22 24 25 22 17 20 21 22 24 25
56 63 61 56 58 71 69 55 51 43 39 34 41 38 33 31 30 28 27 25 23 23 22 21 19 19 18 17 17 20 23 27 27 26 25 23 17 13 24 24 24 27 31
60 61 67 67 63 63 69 64 58 48 41 41 41 39 37 35 33 32 30 28 26 27 28 23 22 20 20 20 21 26 25 27 27 22 20 20 14 14 24 31 28 32 34
60 60 65 63 62 67 62 64 64 61 50 44 44 42 38 38 38 37 33 31 29 30 29 25 23 22 21 24 26 30 29 25 21 19 18 16 14 27 32 30 37 33 33
61 64 67 65 61 62 69 70 70 71 63 54 50 47 46 43 40 39 37 36 32 30 25 21 21 24 24 25 27 30 32 29 16 14 20 13 33 27 30 34 37 39 42
65 68 69 68 65 64 66 72 71 66 67 64 56 54 49 48 44 40 37 35 27 29 32 30 31 28 31 28 28 30 20 35 11 19 16 29 23 29 29 40 34 42 44
64 69 75 73 71 67 65 64 64 63 61 63 58 54 55 51 48 44 36 30 31 35 34 29 26 25 28 27 26 23 14 7 15 22 36 22 33 36 44 40 35 36 35
60 66 71 71 72 72 66 64 68 70 75 66 56 55 52 51 46 37 39 38 35 35 30 26 29 30 33 34 35 34 31 33 28 24 19 31 39 35 38 44 44 40 38
61 63 71 73 71 78 71 64 65 68 62 56 58 56 53 48 39 39 37 37 35 36 36 35 37 38 40 39 38 34 40 33 19 21 40 42 42 47 46 47 41 41 36
58 59 63 71 77 80 75 64 69 70 60 54 53 54 44 49 51 48 45 45 46 44 45 46 45 42 41 33 32 21 14 16 20 22 32 41 50 60 55 48 35 34 43
Wind_Direction_500mb
197 174 166 163 161 160 156 151 145 141 138 141 141 135 128 111 92 65 51 67 77 93 91 93 94 89 88 87 83 83 88 90 86 77 76 105 115 107 93 87 76 76 86
193 168 162 160 159 158 155 154 152 147 144 150 152 142 123 111 88 61 65 94 103 96 92 96 97 91 89 87 86 87 89 92 83 70 62 67 98 104 96 88 75 71 82
185 163 160 157 150 149 151 154 156 155 145 141 144 140 139 116 71 46 107 117 112 104 95 95 99 95 91 89 87 89 91 89 84 67 45 56 78 90 86 76 64 64 70
182 161 161 158 150 148 151 153 158 160 157 162 163 160 150 113 51 71 134 126 118 109 100 98 103 97 92 88 87 87 89 90 91 97 82 22 66 76 78 76 66 59 60
180 164 163 160 157 154 154 157 160 164 163 161 154 147 140 115 36 114 151 141 130 113 104 102 93 94 94 90 88 87 91 91 83 70 105 90 56 58 62 61 57 50 48
180 175 165 164 162 162 159 161 162 163 167 174 174 175 165 191 346 167 166 161 140 112 104 101 96 93 93 94 93 91 89 86 85 79 81 48 41 35 40 41 39 35 29
169 183 171 168 167 169 165 166 166 171 178 191 189 198 209 236 254 186 156 166 155 130 119 113 109 103 96 91 89 88 87 79 88 71 44 9 25 13 11 15 16 15 9
185 186 177 173 172 174 173 173 177 179 190 203 205 209 218 228 216 214 198 157 162 147 136 129 124 120 118 116 102 86 73 60 33 36 2 345 354 349 349 353 353 352 352
193 194 182 178 177 181 184 184 188 192 202 213 222 220 219 218 220 219 201 184 173 168 161 160 159 161 152 97 50 23 19 21 4 4 336 348 349 338 333 334 334 336 336
198 204 184 183 182 185 190 194 199 203 211 216 219 217 206 199 212 215 204 190 187 192 193 202 217 237 252 301 335 340 342 342 348 359 337 342 335 333 329 326 325 322 321
192 200 190 187 187 186 190 195 196 201 203 204 204 207 196 198 215 217 217 199 202 208 216 224 244 264 283 295 321 340 335 322 353 331 323 331 328 325 324 324 324 323 323
185 197 195 187 194 189 193 196 198 199 198 199 202 202 193 180 212 209 206 214 210 218 230 234 241 256 272 285 321 326 313 326 323 320 318 325 327 328 326 325 325 323 322
188 196 197 194 190 192 196 203 202 201 204 205 205 202 192 170 223 218 227 228 230 229 229 230 242 257 277 307 298 310 312 308 312 316 316 330 325 320 322 325 322 318 317
189 196 202 195 188 193 196 201 199 202 196 202 215 209 198 196 216 224 231 229 224 223 231 247 263 271 278 289 298 300 301 305 313 319 317 320 322 318 318 318 316 316 315
192 204 211 194 187 201 209 210 208 206 203 193 232 219 212 213 218 215 215 226 237 235 241 246 257 274 290 296 294 295 299 301 309 311 315 319 316 313 311 311 312 313 312
200 204 217 200 185 194 210 210 211 208 211 202 231 233 218 216 220 219 219 228 235 242 253 255 261 271 279 282 286 293 296 300 305 312 315 319 321 326 325 319 316 312 312
200 205 223 213 197 193 204 211 209 208 212 210 227 237 225 220 224 224 226 235 240 245 251 258 266 270 274 277 285 295 302 309 309 313 315 314 317 342 354 350 343 334 332
209 201 212 221 213 204 207 205 206 207 212 214 227 236 231 223 224 228 232 235 243 249 253 255 260 271 279 287 301 300 292 291 300 307 312 317 313 336 351 348 343 336 325
211 204 213 218 219 213 212 215 205 201 203 215 232 237 233 229 227 231 236 242 243 246 251 249 246 254 262 269 268 279 290 301 299 296 305 306 308 323 330 334 325 319 315
210 209 218 225 218 217 213 217 215 207 203 218 223 235 238 236 231 232 237 242 245 247 249 250 253 253 259 270 285 290 305 302 292 299 289 294 321 327 328 321 317 321 320
208 209 213 224 223 217 215 215 216 213 208 212 212 226 236 237 234 233 235 238 239 245 249 262 270 275 280 284 288 301 303 308 288 279 291 302 315 320 312 321 321 322 324
216 209 208 220 226 223 220 219 221 220 216 221 222 221 230 235 236 236 234 235 239 246 246 247 252 261 263 273 288 298 311 320 292 256 273 309 299 311 311 309 300 307 308
214 214 215 212 221 228 228 217 219 218 218 225 223 225 225 229 231 230 239 246 244 249 258 260 257 256 264 268 275 274 294 261 283 265 295 260 293 300 311 310 313 320 324
221 224 219 211 213 228 230 221 219 219 217 218 223 224 224 225 234 227 239 242 243 245 243 242 246 252 259 266 273 276 273 277 286 287 275 292 302 307 312 316 311 320 321
227 229 218 214 209 225 231 227 221 221 224 227 222 230 225 225 228 223 229 231 234 239 245 248 253 258 261 265 265 272 277 280 290 300 309 306 304 313 308 312 316 316 303
229 230 222 217 218 226 232 229 222 221 217 216 224 228 227 227 222 221 226 229 235 241 248 252 254 257 265 265 265 263 275 302 303 308 303 300 301 299 301 304 312 307 306
Wind_Speed_850mb
33 33 33 30 26 29 32 31 33 35 37 35 28 25 22 19 15 11 9 9 12 20 22 24 25 26 28 29 30 30 32 35 36 37 29 26 27 28 29 28 22 25 23
36 41 36 31 27 32 35 34 40 38 31 27 27 23 18 15 11 8 7 9 17 21 23 24 25 25 26 27 28 31 33 34 37 36 33 29 26 25 23 22 26 30 26
36 45 40 34 33 36 37 37 42 37 31 32 30 23 15 8 6 6 7 12 15 18 21 23 24 25 25 25 26 27 30 36 41 36 28 22 24 20 18 16 18 21 22
33 46 42 38 39 40 39 41 42 36 30 28 22 17 11 8 5 5 11 14 19 19 21 21 20 22 23 23 23 24 25 25 29 28 22 16 18 18 18 18 17 19 21
31 46 43 41 40 40 37 43 40 33 33 28 19 14 11 4 4 6 12 12 13 16 18 20 18 21 20 20 20 20 20 20 25 22 14 7 13 14 15 15 16 16 16
30 37 43 42 40 40 38 42 37 35 32 26 19 13 8 2 2 4 13 13 11 13 16 16 16 16 16 15 15 15 15 14 20 11 9 5 10 12 12 12 12 12 12
35 38 44 41 40 41 40 39 39 32 27 21 19 14 9 7 6 5 9 11 12 11 12 13 13 12 11 11 11 11 10 10 11 8 6 7 10 10 11 11 11 11 11
41 34 45 42 41 41 41 39 35 29 25 21 20 17 15 13 12 13 8 9 13 12 11 10 8 7 7 6 5 6 6 6 6 8 8 9 10 12 12 12 12 13 14
39 34 48 46 43 42 40 37 34 30 26 25 24 21 20 18 19 17 15 14 14 12 10 8 7 5 3 2 3 4 5 5 4 5 9 13 15 16 16 15 14 14 14
37 36 48 48 46 45 42 38 35 32 29 28 26 25 23 24 27 29 21 19 15 13 10 7 4 3 2 2 3 5 6 5 5 9 12 15 17 19 19 18 17 17 17
37 31 38 44 46 45 42 39 35 31 28 26 26 26 24 21 19 14 16 16 15 14 10 8 7 6 6 5 4 6 7 8 12 12 15 18 20 20 19 20 20 21 21
47 45 39 44 36 43 42 40 37 32 27 24 25 25 23 14 11 14 17 16 16 15 12 10 8 6 7 8 6 8 8 10 13 14 17 17 19 20 20 20 21 22 22
49 47 44 43 37 35 35 39 40 35 29 25 23 24 25 25 25 26 22 18 18 15 13 13 9 8 10 9 12 13 14 15 14 14 17 18 20 22 23 24 24 24 23
53 54 50 47 44 42 43 37 39 33 29 25 20 22 29 31 35 28 27 18 18 16 12 10 10 12 13 13 12 12 13 14 15 16 18 20 21 23 24 25 25 26 26
58 57 55 52 47 45 50 43 41 37 33 27 24 27 28 32 31 24 21 22 19 17 15 14 14 14 15 15 14 14 15 17 17 17 18 20 19 21 24 24 25 26 27
54 60 57 63 60 48 50 48 45 39 32 28 28 27 28 23 23 23 24 23 22 20 17 16 16 17 16 17 17 17 18 18 20 20 22 23 21 20 20 22 23 25 26
58 55 55 50 68 65 56 50 46 41 34 31 34 32 28 28 27 24 23 22 21 20 19 20 19 19 18 17 17 18 19 22 22 22 24 25 22 17 20 21 22 24 25
56 63 61 56 58 71 69 55 51 43 39 34 41 38 33 31 30 28 27 25 23 23 22 21 19 19 18 17 17 20 23 27 27 26 25 23 17 13 24 24 24 27 31
60 61 67 67 63 63 69 64 58 48 41 41 41 39 37 35 33 32 30 28 26 27 28 23 22 20 20 20 21 26 25 27 27 22 20 20 14 14 24 31 28 32 34
60 60 65 63 62 67 62 64 64 61 50 44 44 42 38 38 38 37 33 31 29 30 29 25 23 22 21 24 26 30 29 25 21 19 18 16 14 27 32 30 37 33 33
61 64 67 65 61 62 69 70 70 71 63 54 50 47 46 43 40 39 37 36 32 30 25 21 21 24 24 25 27 30 32 29 16 14 20 13 33 27 30 34 37 39 42
65 68 69 68 65 64 66 72 71 66 67 64 56 54 49 48 44 40 37 35 27 29 32 30 31 28 31 28 28 30 20 35 11 19 16 29 23 29 29 40 34 42 44
64 69 75 73 71 67 65 64 64 63 61 63 58 54 55 51 48 44 36 30 31 35 34 29 26 25 28 27 26 23 14 7 15 22 36 22 33 36 44 40 35 36 35
60 66 71 71 72 72 66 64 68 70 75 66 56 55 52 51 46 37 39 38 35 35 30 26 29 30 33 34 35 34 31 33 28 24 19 31 39 35 38 44 44 40 38
61 63 71 73 71 78 71 64 65 68 62 56 58 56 53 48 39 39 37 37 35 36 36 35 37 38 40 39 38 34 40 33 19 21 40 42 42 47 46 47 41 41 36
58 59 63 71 77 80 75 64 69 70 60 54 53 54 44 49 51 48 45 45 46 44 45 46 45 42 41 33 32 21 14 16 20 22 32 41 50 60 55 48 35 34 43
Wind_Direction_850mb
197 174 166 163 161 160 156 151 145 141 138 141 141 135 128 111 92 65 51 67 77 93 91 93 94 89 88 87 83 83 88 90 86 77 76 105 115 107 93 87 76 76 86
193 168 162 160 159 158 155 154 152 147 144 150 152 142 123 111 88 61 65 94 103 96 92 96 97 91 89 87 86 87 89 92 83 70 62 67 98 104 96 88 75 71 82
185 163 160 157 150 149 151 154 156 155 145 141 144 140 139 116 71 46 107 117 112 104 95 95 99 95 91 89 87 89 91 89 84 67 45 56 78 90 86 76 64 64 70
182 161 161 158 150 148 151 153 158 160 157 162 163 160 150 113 51 71 134 126 118 109 100 98 103 97 92 88 87 87 89 90 91 97 82 22 66 76 78 76 66 59 60
180 164 163 160 157 154 154 157 160 164 163 161 154 147 140 115 36 114 151 141 130 113 104 102 93 94 94 90 88 87 91 91 83 70 105 90 56 58 62 61 57 50 48
180 175 165 164 162 162 159 161 162 163 167 174 174 175 165 191 346 167 166 161 140 112 104 101 96 93 93 94 93 91 89 86 85 79 81 48 41 35 40 41 39 35 29
169 183 171 168 167 169 165 166 166 171 178 191 189 198 209 236 254 186 156 166 155 130 119 113 109 103 96 91 89 88 87 79 88 71 44 9 25 13 11 15 16 15 9
185 186 177 173 172 174 173 173 177 179 190 203 205 209 218 228 216 214 198 157 162 147 136 129 124 120 118 116 102 86 73 60 33 36 2 345 354 349 349 353 353 352 352
193 194 182 178 177 181 184 184 188 192 202 213 222 220 219 218 220 219 201 184 173 168 161 160 159 161 152 97 50 23 19 21 4 4 336 348 349 338 333 334 334 336 336
198 204 184 183 182 185 190 194 199 203 211 216 219 217 206 199 212 215 204 190 187 192 193 202 217 237 252 301 335 340 342 342 348 359 337 342 335 333 329 326 325 322 321
192 200 190 187 187 186 190 195 196 201 203 204 204 207 196 198 215 217 217 199 202 208 216 224 244 264 283 295 321 340 335 322 353 331 323 331 328 325 324 324 324 323 323
185 197 195 187 194 189 193 196 198 199 198 199 202 202 193 180 212 209 206 214 210 218 230 234 241 256 272 285 321 326 313 326 323 320 318 325 327 328 326 325 325 323 322
188 196 197 194 190 192 196 203 202 201 204 205 205 202 192 170 223 218 227 228 230 229 229 230 242 257 277 307 298 310 312 308 312 316 316 330 325 320 322 325 322 318 317
189 196 202 195 188 193 196 201 199 202 196 202 215 209 198 196 216 224 231 229 224 223 231 247 263 271 278 289 298 300 301 305 313 319 317 320 322 318 318 318 316 316 315
192 204 211 194 187 201 209 210 208 206 203 193 232 219 212 213 218 215 215 226 237 235 241 246 257 274 290 296 294 295 299 301 309 311 315 319 316 313 311 311 312 313 312
200 204 217 200 185 194 210 210 211 208 211 202 231 233 218 216 220 219 219 228 235 242 253 255 261 271 279 282 286 293 296 300 305 312 315 319 321 326 325 319 316 312 312
200 205 223 213 197 193 204 211 209 208 212 210 227 237 225 220 224 224 226 235 240 245 251 258 266 270 274 277 285 295 302 309 309 313 315 314 317 342 354 350 343 334 332
209 201 212 221 213 204 207 205 206 207 212 214 227 236 231 223 224 228 232 235 243 249 253 255 260 271 279 287 301 300 292 291 300 307 312 317 313 336 351 348 343 336 325
211 204 213 218 219 213 212 215 205 201 203 215 232 237 233 229 227 231 236 242 243 246 251 249 246 254 262 269 268 279 290 301 299 296 305 306 308 323 330 334 325 319 315
210 209 218 225 218 217 213 217 215 207 203 218 223 235 238 236 231 232 237 242 245 247 249 250 253 253 259 270 285 290 305 302 292 299 289 294 321 327 328 321 317 321 320
208 209 213 224 223 217 215 215 216 213 208 212 212 226 236 237 234 233 235 238 239 245 249 262 270 275 280 284 288 301 303 308 288 279 291 302 315 320 312 321 321 322 324
216 209 208 220 226 223 220 219 221 220 216 221 222 221 230 235 236 236 234 235 239 246 246 247 252 261 263 273 288 298 311 320 292 256 273 309 299 311 311 309 300 307 308
214 214 215 212 221 228 228 217 219 218 218 225 223 225 225 229 231 230 239 246 244 249 258 260 257 256 264 268 275 274 294 261 283 265 295 260 293 300 311 310 313 320 324
221 224 219 211 213 228 230 221 219 219 217 218 223 224 224 225 234 227 239 242 243 245 243 242 246 252 259 266 273 276 273 277 286 287 275 292 302 307 312 316 311 320 321
227 229 218 214 209 225 231 227 221 221 224 227 222 230 225 225 228 223 229 231 234 239 245 248 253 258 261 265 265 272 277 280 290 300 309 306 304 313 308 312 316 316 303
229 230 222 217 218 226 232 229 222 221 217 216 224 228 227 227 222 221 226 229 235 241 248 252 254 257 265 265 265 263 275 302 303 308 303 300 301 299 301 304 312 307 306